Regional Weather Roundup
Issued by NWS Kansas City/Pleasant Hill, MO

Home | Current Version | Previous Version | Graphics & Text | Print | Product List | Glossary Off
Versions: 1 2 3 4 5 6 7 8 9 10 11 12 13 14 15 16 17 18 19 20 21 22 23 24 25 26 27 28 29 30 31 32 33 34 35 36 37 38 39 40 41 42 43 44 45 46 47 48 49 50

000
ASUS43 KEAX 281411
RWREAX

WEATHER ROUNDUP FOR EASTERN KANSAS AND NORTHWEST MISSOURI
NATIONAL WEATHER SERVICE KANSAS CITY/PLEASANT HILL MO
900 AM CDT SAT MAR 28 2015

KSZ040-057-103>105-MOZ028-029-037-043-281500-
...KANSAS CITY METROPOLITAN AREA...

CITY           SKY/WX    TMP DP  RH WIND       PRES   REMARKS
K.C. INTL      CLOUDY    37  30  75 E16       30.16S WCI  28
K.C. DOWNTOWN  CLOUDY    39  29  67 E13       30.17R WCI  31
LEES SUMMIT    CLOUDY    37  29  72 E14       30.18R WCI  28
OLATHE - IXD   CLOUDY    38  27  64 E12       30.15S WCI  30
OLATHE - OJC   PTSUNNY   39  28  64 E15       30.15S WCI  31
LAWRENCE       CLOUDY    41  26  55 E13       30.14S WCI  34

$$

MOZ001>008-011>017-020>025-030>033-038>040-044>046-053-054-281500-
...NORTHERN AND CENTRAL MISSOURI...

CITY           SKY/WX    TMP DP  RH WIND       PRES   REMARKS
ST. JOSEPH     CLOUDY    37  29  72 SE13      30.18R WCI  29
MOSBY          CLOUDY    36  30  80 SE10      30.20S WCI  28
WARRENSBURG    CLOUDY    36  30  80 E10       30.21R WCI  28
WHITEMAN AFB   CLOUDY    36  30  78 SE10      30.20R WCI  28
CLINTON        CLOUDY    37  32  81 SE12      30.21R WCI  30
SEDALIA        CLOUDY    37  30  75 SE12      30.23R WCI  29
WARSAW         NOT AVBL
MARSHALL       CLOUDY    37  34  87 E10       30.24S WCI  30
CHILLICOTHE      N/A     35  29  78 SE9       30.23S WCI  28
MOBERLY        CLOUDY    34  19  55 SE9       30.25R WCI  26
KIRKSVILLE     CLOUDY    33  19  56 SE14      30.25R WCI  23

$$

MOZ041-047>049-056>058-063>065-088>090-097-281500-
...EASTERN AND SOUTHERN MISSOURI...

CITY           SKY/WX    TMP DP  RH WIND       PRES   REMARKS
ST. LOUIS INTL PTSUNNY   33  20  58 SE8       30.31R WCI  26
SPIRIT OF STL  PTSUNNY   32  19  58 E7        30.30R WCI  26
COLUMBIA       FLURRIES  32  23  69 SE6       30.25R WCI  26
JEFFERSON CITY FLURRIES  34  26  72 E6        30.27R WCI  29
MEXICO         CLOUDY    34  25  69 SE7       30.26R WCI  28
HANNIBAL       PTSUNNY   34  14  44 SE8       30.28R WCI  27
ROLLA          CLOUDY    32  24  72 SE6       30.23R WCI  26
LEBANON        LGT SNOW  34  28  80 SE8       30.22R WCI  27
OSAGE BEACH    CLOUDY    34  28  80 SE6       30.24R WCI  29
SPRINGFIELD    CLOUDY    39  24  55 E13       30.16R WCI  31
BRANSON        PTSUNNY   39  28  65 SE14G21   30.17R WCI  31
NEVADA         CLOUDY    39  28  65 E13       30.16F WCI  32
JOPLIN         CLOUDY    45  29  53 SE8       30.12S
WEST PLAINS    LGT SNOW  31  28  89 SE7       30.25R VSB 3/4 WCI  24

$$

IAZ060-094-KSZ022-034>040-054-083-096-NEZ052-066-093-281500-
...KANSAS...SOUTHEAST NEBRASKA AND IOWA...

CITY           SKY/WX    TMP DP  RH WIND       PRES   REMARKS
TOPEKA         SUNNY     42  25  50 E18       30.13R WCI  34
MANHATTAN      SUNNY     41  28  60 E10       30.08S WCI  35
EMPORIA        MOSUNNY   41  29  62 E13       30.07R WCI  34
CHANUTE        MOSUNNY   44  31  60 SE9       30.08F
WICHITA        MOSUNNY   44  34  67 SE6       30.02R
OMAHA          MOSUNNY   37  25  61 SE14      30.16R WCI  28
LINCOLN        SUNNY     35  27  72 SE13      30.13R WCI  26
FALLS CITY     SUNNY     37  28  70 E14       30.14R WCI  28
LAMONI         CLOUDY    34  24  67 SE9       30.20R WCI  27
DES MOINES     CLOUDY    34  15  46 SE8       30.23R WCI  27

$$



USA.gov is the U.S. government's official web portal to all federal, state and local government web resources and services.